Selinsgrove, PA

9:13 PM EST on November 14, 2019 (GMT -0500)
Penn Valley

Weather History for KSEG - June, 2019

Change the Weather History Date:

Wednesday, June 5, 2019

  Actual Average (WUND) Record (WUND)
Temperature  
Mean Temperature 70 °F -  
Max Temperature 81 °F - - (-1)
Min Temperature 60 °F - - (-1)
Cooling Degree Days 5    
Growing Degree Days 20 (Base 50)    
Moisture  
Dew Point 59 °F    
Average Humidity 66    
Maximum Humidity 87    
Minimum Humidity 50    
Precipitation  
Precipitation 0.00 in - - ()
Sea Level Pressure  
Sea Level Pressure 29.84 in    
Wind  
Wind Speed 3 mph (SSW)    
Max Wind Speed 12 mph    
Max Gust Speed 20 mph    
Visibility 10 miles    
Events Rain    
Averages and records for this station are not official NWS values.
T = Trace of Precipitation, MM = Missing Value Source: NWS Daily Summary

Daily Weather History Graph

Daily Weather History Graph

Search for Another Location

Airport or City:

Astronomy

Jun. 05, 2019 Rise Set
Actual Time 5:36 AM EDT 8:35 PM EDT
Civil Twilight 5:03 AM EDT 9:08 PM EDT
Nautical Twilight 4:22 AM EDT 9:50 PM EDT
Astronomical Twilight 3:33 AM EDT 10:39 PM EDT
Moon 7:39 AM EDT (6/5) 10:59 PM EDT (6/5)
Length of Visible Light 16h 04m
Length of Day
14h 58m
Waxing Crescent, 6% of the Moon is Illuminated
Jun 5
Waxing Crescent
Jun 10
First Quarter
Jun 17
Full
Jun 25
Last Quarter
Jul 2
New

Hourly Weather History & Observations

Time (EDT) Temp. Heat Index Dew Point Humidity Pressure Visibility Wind Dir Wind Speed Gust Speed Precip Events Conditions
12:53 AM 64.0 °F - 52.0 °F 65% 29.96 in 10.0 mi Calm Calm - N/A   Mostly Cloudy
1:53 AM 64.0 °F - 53.1 °F 67% 29.97 in 10.0 mi WNW 3.5 mph - N/A   Overcast
2:53 AM 64.0 °F - 53.1 °F 67% 29.95 in 10.0 mi SSW 4.6 mph - 0.00 in Rain Light Rain
3:53 AM 62.1 °F - 55.0 °F 78% 29.93 in 10.0 mi Calm Calm - 0.00 in   Clear
4:53 AM 61.0 °F - 55.9 °F 83% 29.93 in 10.0 mi Calm Calm - N/A   Mostly Cloudy
5:53 AM 60.1 °F - 55.9 °F 86% 29.93 in 10.0 mi Calm Calm - N/A   Partly Cloudy
6:53 AM 61.0 °F - 57.0 °F 87% 29.94 in 10.0 mi Calm Calm - N/A   Partly Cloudy
7:53 AM 64.0 °F - 55.0 °F 73% 29.93 in 10.0 mi Calm Calm - N/A   Clear
8:53 AM 66.9 °F - 55.9 °F 68% 29.91 in 10.0 mi South 5.8 mph - N/A   Clear
9:53 AM 71.1 °F - 55.9 °F 59% 29.88 in 10.0 mi SSW 4.6 mph - N/A   Clear
10:53 AM 72.0 °F - 57.0 °F 59% 29.87 in 10.0 mi Variable 4.6 mph - N/A   Clear
11:53 AM 75.0 °F - 57.9 °F 55% 29.85 in 10.0 mi Variable 4.6 mph - N/A   Mostly Cloudy
12:53 PM 80.1 °F 80.9 °F 60.1 °F 50% 29.83 in 10.0 mi South 10.4 mph - N/A   Scattered Clouds
1:53 PM 78.1 °F - 60.1 °F 54% 29.81 in 10.0 mi South 11.5 mph - N/A   Partly Cloudy
2:53 PM 78.1 °F - 61.0 °F 56% 29.78 in 10.0 mi SSE 9.2 mph - N/A   Mostly Cloudy
3:53 PM 79.0 °F - 61.0 °F 54% 29.76 in 10.0 mi SSW 9.2 mph - N/A   Mostly Cloudy
4:53 PM 78.1 °F - 62.1 °F 58% 29.76 in 10.0 mi SSW 9.2 mph 19.6 mph N/A   Overcast
5:53 PM 77.0 °F - 63.0 °F 62% 29.73 in 10.0 mi SSW 8.1 mph - N/A   Scattered Clouds
6:53 PM 77.0 °F - 63.0 °F 62% 29.73 in 10.0 mi Variable 6.9 mph - N/A   Scattered Clouds
7:53 PM 75.9 °F - 64.0 °F 67% 29.73 in 10.0 mi SSW 4.6 mph - N/A   Mostly Cloudy
8:53 PM 75.0 °F - 64.0 °F 69% 29.72 in 10.0 mi SSW 3.5 mph - N/A   Overcast
9:53 PM 73.9 °F - 63.0 °F 68% 29.73 in 10.0 mi SSW 3.5 mph - N/A   Overcast
10:53 PM 73.0 °F - 63.0 °F 71% 29.74 in 10.0 mi SSW 4.6 mph - N/A   Overcast
11:53 PM 72.0 °F - 63.0 °F 73% 29.74 in 10.0 mi South 4.6 mph - 0.00 in Rain Light Rain